Location: Little Maitland River
(43.8022°N, 81.1549°W)
Time: 23:21:18
(UTC+00:00)

Cosmos 1892 Rocket - Visible Passes

Search period start: 12 March 2026 00:00
Search period end: 22 March 2026 00:00
Orbit: 599 x 626 km, 82.5° (Epoch: 12 March)

Date Brightness Start Highest point End Pass type
(mag) Time Alt. Az. Time Alt. Az. Time Alt. Az.
12 Mar 6.6 00:06:54 10° WSW 00:09:32 16° WNW 00:12:09 10° NNW visible
12 Mar 6.5 08:34:45 10° NNE 08:37:22 15° ENE 08:39:59 10° ESE visible
12 Mar 3.6 10:11:08 10° NNW 10:15:26 52° W 10:19:44 10° S visible
13 Mar 5.7 08:49:11 10° NNE 08:52:52 25° ENE 08:56:32 10° SE visible
13 Mar 4.3 10:26:44 10° NNW 10:30:35 30° W 10:34:26 10° SSW visible
14 Mar 4.7 09:04:04 10° N 09:08:17 42° ENE 09:12:30 10° SSE visible
14 Mar 5.0 10:42:42 10° NW 10:45:40 18° W 10:48:37 10° SW visible
15 Mar 3.6 09:19:11 10° N 09:23:37 75° E 09:25:46 30° SSE visible
15 Mar 5.5 11:00:11 10° WNW 11:00:40 10° W 11:01:07 10° W visible
16 Mar 6.5 07:58:30 10° NE 08:00:42 13° ENE 08:02:05 12° E visible
16 Mar 3.5 09:34:29 10° NNW 09:38:52 61° W 09:39:01 61° WSW visible
17 Mar 5.8 08:12:45 10° NNE 08:16:07 22° ENE 08:16:07 22° ENE visible
17 Mar 4.4 09:50:01 10° NNW 09:53:04 31° WNW 09:53:04 31° WNW visible
18 Mar 5.3 08:27:32 10° N 08:30:29 31° NE 08:30:29 31° NE visible
18 Mar 5.3 10:05:52 10° NW 10:07:27 17° WNW 10:07:27 17° WNW visible
19 Mar 5.1 08:42:36 10° N 08:45:02 31° N 08:45:02 31° N visible
20 Mar 6.8 07:22:23 10° NE 07:22:44 11° NE 07:22:44 11° NE visible
20 Mar 5.2 08:57:51 10° NNW 08:59:43 25° NNW 08:59:43 25° NNW visible
21 Mar 6.4 07:36:19 10° NNE 07:37:30 15° NE 07:37:30 15° NE visible
21 Mar 5.6 09:13:19 10° NNW 09:14:29 17° NNW 09:14:29 17° NNW visible
